Regional Weather Roundup
Issued by NWS

Home | Current Version | Previous Version | Graphics & Text | Print | Product List | Glossary On
Versions: 1 2 3 4 5 6 7 8 9 10 11 12 13 14 15 16 17 18 19 20 21 22 23 24 25 26 27 28 29 30 31 32 33 34 35 36 37 38 39 40 41 42 43 44 45 46 47 48 49 50
921
ASUS45 KSLC 252310
RWRUT

UTAH REGIONAL WEATHER ROUNDUP
NATIONAL WEATHER SERVICE SALT LAKE CITY UT
500 PM MDT TUE JUL 25 2017

UTZ001>011-023>025-260000-

NORTHERN UTAH

CITY           SKY/WX    TMP DP  RH WIND       PRES   REMARKS
BRIGHAM CITY   CLOUDY    83  51  32 NW5       30.08F
HILL AFB       PTSUNNY   81  55  41 SW14      30.10F
LOGAN          CLOUDY    82  54  37 N6        30.10F
OGDEN          PTSUNNY   83  55  38 VRB7      30.07F
SALT LAKE CITY CLOUDY    84  56  38 CALM      30.07F
TOOELE VALLEY  CLOUDY    81  55  41 N9        30.08F
WENDOVER       MOSUNNY   87  53  31 E12       30.04F
HEBER CITY     CLOUDY    72  55  56 SE3       30.17F
WEST JORDAN    CLOUDY    77  62  59 CALM      30.12F

$$

UTZ011>015-024>027-260000-

CENTRAL/NORTHEAST UTAH

CITY           SKY/WX    TMP DP  RH WIND       PRES   REMARKS
PROVO AIRPORT  CLOUDY    78  60  53 VRB3      30.12F
MOAB/CANYONLAN PTSUNNY   79  66  64 CALM      30.11F
DELTA          CLOUDY    77  55  47 S10       30.12F
PRICE          CLOUDY    69  62  78 S3        30.20F
RICHFIELD      PTSUNNY   72  59  64 CALM      30.19F
ROOSEVELT      RAIN      73  61  64 S6        30.18S
VERNAL         MOSUNNY   74  60  61 SE6       30.16F

$$

UTZ013>016-019>022-027-260000-

SOUTHERN UTAH

CITY           SKY/WX    TMP DP  RH WIND       PRES   REMARKS
BRYCE CANYON   CLOUDY    66  56  70 W10       30.34R
CEDAR CITY     CLOUDY    73  59  61 S10       30.20F
MILFORD        PTSUNNY   79  59  50 S14       30.13F
ST GEORGE      CLOUDY    79  65  62 CALM      30.09F
HANKSVILLE     CLOUDY    73  64  73 CALM      30.12F
KANAB          CLOUDY    70  61  73 SW13G18   30.23S
BLANDING       PTSUNNY   80  55  41 SW7       30.22F

$$

REGIONAL REPORTS     COLORADO/ARIZONA

CITY           SKY/WX    TMP DP  RH WIND       PRES   REMARKS
CRAIG, CO      LGT RAIN  72  58  61 N6        30.23F
GRAND JUNCTION LGT RAIN  73  66  78 NW5       30.14F
RIFLE, CO      CLOUDY    78  58  49 W17       30.16S
MONTROSE, CO   TSTM      63  61  93 VRB5      30.23R VSB 1/2
CORTEZ, CO     CLOUDY    78  59  51 NW15      30.18F
COLORADO CITY  MOCLDY    70  64  83 SW7       30.24S
PAGE, AZ       CLOUDY    78  66  66 VRB5      30.11F
GRAND CANYON   CLOUDY    64  60  87 SW7       30.32F
KINGMAN, AZ    RAIN      69  65  86 E9        30.14F FOG
FLAGSTAFF, AZ  CLOUDY    62  60  93 VRB5      30.36S

$$

REGIONAL REPORTS    NEVADA/IDAHO/WYOMING

CITY           SKY/WX    TMP DP  RH WIND       PRES   REMARKS
LAS VEGAS, NV  CLOUDY    83  63  50 NE7       30.03F
ELY, NY        PTSUNNY   79  51  37 MISG      30.18S
ELKO, NV       SUNNY     89  41  18 VRB5      30.05F
POCATELLO, ID  PTSUNNY   82  52  35 S5        30.10F
BURLEY, ID     PTSUNNY   87  49  26 CALM      30.04F
FORT BRIDGER,  CLOUDY    71  53  51 SW13      30.29S
EVANSTON, WY   RAIN      60  54  80 N7        30.28S
ROCK SPRINGS,  CLOUDY    71  52  50 NE8       30.24S
KEMMERER, WY     N/A     70  46  43 NW12      30.28S

$$




USA.gov is the U.S. government's official web portal to all federal, state and local government web resources and services.